GFSNGP_925_thetae_132.txt.gz
Theta_e
322 323 322 321 323 321 322 320 324 322 323 320 321 331 332 332 331 333 334 332 330 328 326 327 327 327 327 324 320 319 321 319 322 326 326 326 326 327 327 327 328 329 329 328
323 325 323 325 324 323 323 320 321 319 319 316 318 331 333 332 332 334 334 333 330 328 327 326 327 328 327 323 321 321 321 315 317 320 324 326 327 328 328 328 328 329 329 330
323 325 325 325 324 324 322 320 321 323 321 323 331 333 334 332 332 333 333 332 330 328 327 328 327 328 325 323 321 321 316 316 318 322 325 326 327 328 328 328 326 327 329 330
322 324 328 322 321 322 323 323 321 321 322 325 329 330 328 327 331 332 330 330 329 327 328 329 330 328 326 322 321 319 317 317 322 325 326 326 328 329 327 325 326 329 330 331
325 324 323 326 325 323 326 325 328 329 331 332 331 331 332 329 328 330 329 328 329 330 330 330 329 327 325 322 319 319 317 321 323 325 326 327 328 327 326 326 324 331 330 332
320 325 327 323 323 323 323 326 327 331 330 332 330 334 331 330 330 329 329 329 329 330 330 329 328 326 323 320 318 318 322 323 324 325 326 327 328 328 328 325 322 327 330 330
323 323 321 320 324 323 328 324 320 329 329 330 331 328 326 326 328 329 328 329 330 330 329 328 327 324 322 321 321 322 324 323 323 324 326 326 325 326 327 326 323 325 322 323
319 322 324 322 326 328 322 323 324 326 328 330 327 325 325 325 326 328 329 329 330 330 329 328 326 323 322 323 323 324 324 323 323 322 322 325 325 327 326 322 320 321 322 321
320 320 319 321 323 322 322 324 326 325 325 327 326 325 325 327 327 327 329 330 331 330 329 327 327 324 324 324 324 325 324 322 321 322 321 325 325 323 322 323 322 322 320 321
318 319 321 321 319 317 319 321 323 325 326 325 327 326 326 326 326 329 330 330 331 329 326 326 326 325 324 325 326 325 324 322 322 322 322 322 325 324 323 322 322 322 320 321
316 316 316 318 317 317 320 321 320 319 323 324 324 324 325 327 328 328 330 330 330 328 327 327 326 325 322 325 326 323 324 324 322 320 320 323 325 325 324 323 324 324 323 322
318 314 314 315 316 316 319 319 319 320 320 321 321 323 323 324 325 328 328 329 327 327 326 326 326 324 323 326 326 323 324 323 320 320 319 320 326 326 325 324 322 322 321 320
313 311 313 314 314 315 317 317 318 319 319 320 322 322 322 322 322 323 325 327 327 326 326 326 325 323 325 326 324 324 324 324 323 320 319 318 319 321 322 324 322 320 322 322
308 309 310 311 313 312 312 314 316 318 319 319 320 320 321 322 322 322 323 327 328 327 327 326 323 325 324 323 324 324 324 323 322 320 319 319 319 318 318 324 322 321 321 321
308 308 308 309 310 311 312 314 317 318 317 318 319 319 321 324 325 325 326 329 327 326 325 324 323 325 323 323 323 322 322 322 320 320 320 320 320 320 319 323 321 321 321 320
309 308 309 310 311 312 315 319 319 318 318 320 320 322 323 325 325 326 328 325 323 324 325 323 323 325 323 323 322 322 323 320 320 320 320 318 320 320 321 321 320 317 317 317
313 314 311 311 313 315 317 317 318 319 319 321 323 324 325 326 325 324 323 324 324 324 324 323 325 324 324 321 321 320 321 320 320 319 318 319 320 320 320 318 317 315 315 315
314 315 315 311 314 316 317 318 318 319 321 322 323 323 324 324 324 322 322 324 323 323 323 323 323 321 321 320 321 318 317 317 316 317 319 319 319 319 318 317 315 315 314 313
317 317 313 312 314 317 318 319 320 320 321 322 322 322 321 321 321 322 322 322 321 321 321 324 324 322 317 318 320 315 313 314 317 316 316 317 317 316 315 315 314 314 313 312
318 318 319 320 321 320 318 320 321 321 322 322 322 320 320 321 321 321 321 320 318 320 320 322 323 316 314 316 313 311 311 311 312 311 311 309 309 307 305 306 307 310 311 310
317 320 321 319 320 320 320 321 322 322 322 323 320 319 320 320 320 319 317 314 315 313 316 315 311 313 312 309 307 306 306 305 305 305 304 304 303 303 302 302 302 302 302 302
320 319 319 319 319 320 320 321 322 321 321 322 320 320 318 314 313 310 309 307 306 307 308 310 309 308 306 306 305 304 304 303 304 303 303 302 302 302 301 301 301 301 301 300
319 320 319 319 319 319 318 318 319 322 322 321 317 316 312 308 305 305 304 304 305 306 307 305 305 305 304 304 303 303 302 302 302 302 302 302 301 301 301 300 300 300 299 299
320 316 315 316 316 316 316 314 313 312 312 312 310 309 307 306 305 305 304 304 304 304 303 303 303 303 303 302 302 302 302 302 302 301 301 300 300 299 298 297 296 297 297 297
318 317 317 316 315 313 313 313 313 314 312 310 310 310 308 307 305 304 302 302 302 303 302 302 302 302 302 302 302 302 301 302 301 301 300 297 296 295 294 294 295 294 294 294
316 316 315 314 314 313 313 313 312 311 310 309 309 305 304 302 302 301 301 301 301 302 302 302 302 302 302 302 301 301 301 301 301 300 298 296 295 294 294 293 293 294 294 293
315 315 313 313 313 312 312 312 311 311 310 308 308 306 305 305 305 303 302 301 301 301 301 302 302 302 301 301 301 301 301 301 300 299 298 297 296 295 294 293 292 292 292 292

GFSNGP_925_thetae_138.txt.gz
Theta_e
331 330 330 330 332 332 333 333 334 333 334 335 334 332 332 334 341 345 348 349 348 347 346 343 342 340 338 336 335 333 331 330 329 325 324 326 330 332 334 334 334 332 330 327
332 331 329 329 329 330 333 332 333 334 334 333 332 331 332 333 336 343 347 348 348 347 345 343 341 340 337 336 335 332 330 329 327 325 324 330 332 333 334 334 332 332 328 325
335 333 332 333 332 332 333 333 333 334 333 333 330 331 332 333 334 335 338 346 347 346 344 342 340 337 336 336 333 331 330 328 326 325 325 330 333 334 333 333 333 331 325 326
335 337 338 334 333 331 332 332 332 332 333 331 331 332 332 334 336 338 339 340 345 343 341 341 339 337 337 335 333 330 329 327 324 325 327 331 333 333 332 332 332 329 324 324
335 336 333 333 333 332 333 333 332 332 332 332 333 335 331 331 338 339 339 342 342 341 341 339 337 337 337 335 333 330 329 327 325 327 331 332 332 332 331 332 330 326 325 324
334 332 333 331 334 332 332 334 336 335 336 335 335 332 329 341 339 340 340 340 342 340 338 337 337 338 337 334 332 331 330 326 327 330 331 331 332 330 330 331 327 324 324 322
332 334 330 333 333 331 335 337 336 335 336 337 336 335 340 339 341 341 341 342 340 337 333 336 338 338 336 334 332 331 329 328 328 330 330 329 332 330 330 328 326 326 324 322
332 334 335 332 332 334 337 335 335 335 335 337 339 339 339 337 339 343 342 339 336 334 335 337 339 338 336 334 332 331 329 329 328 330 330 327 330 330 325 326 326 325 324 325
332 334 335 332 334 333 333 335 333 333 332 333 335 337 338 338 338 341 339 336 334 334 337 339 339 338 337 335 333 331 330 332 329 329 330 329 330 330 327 324 324 324 321 325
332 333 332 329 328 327 328 329 327 326 326 326 328 331 334 337 337 340 339 337 335 336 337 340 339 338 336 335 334 331 331 332 328 330 329 329 327 327 328 325 325 324 322 324
330 331 331 330 329 327 326 325 323 323 322 321 323 325 327 330 335 337 337 337 336 337 338 339 340 338 336 334 333 330 331 330 325 324 325 325 325 325 327 327 321 322 321 318
326 330 331 330 328 325 323 322 320 319 318 317 318 320 321 325 325 329 334 336 337 338 337 339 340 339 335 333 331 331 331 327 324 324 324 323 323 324 325 324 321 319 317 316
327 324 324 323 324 321 319 318 317 318 318 320 319 319 320 322 320 323 330 333 335 338 338 333 328 331 334 333 330 332 332 325 325 325 324 324 324 324 325 323 321 318 317 316
318 318 318 318 317 317 317 317 317 318 318 318 319 320 321 322 322 321 328 333 334 334 331 331 333 334 333 330 331 332 328 326 326 324 325 324 322 324 324 326 326 324 318 317
316 317 317 317 317 318 317 317 318 318 318 319 319 320 321 323 325 324 327 331 332 332 333 334 334 333 330 330 330 327 327 325 325 325 325 324 324 325 326 326 324 321 320 322
318 321 322 320 319 321 322 322 322 321 318 319 320 320 322 324 325 327 328 330 331 330 327 332 334 331 331 330 328 326 327 326 324 325 324 324 324 325 325 324 324 322 319 318
326 326 325 324 324 323 324 324 323 321 319 321 321 322 324 324 328 331 331 332 332 333 332 333 331 330 330 329 327 326 325 325 322 323 323 324 325 325 324 324 322 319 315 312
325 325 325 325 326 326 324 322 322 321 322 323 324 324 325 327 332 327 327 329 329 327 328 331 331 330 327 324 324 324 324 324 323 323 324 325 325 324 323 322 321 320 318 314
323 325 325 325 325 325 326 326 325 324 325 324 325 325 328 329 331 328 329 330 329 329 328 328 323 322 320 320 321 322 318 318 320 322 322 322 322 322 321 321 320 318 316 313
324 324 324 323 324 325 325 325 324 325 325 326 327 328 329 328 329 329 328 321 318 320 326 323 324 322 322 321 321 318 318 318 319 321 320 318 317 316 313 311 312 311 309 308
325 325 324 324 324 323 323 323 323 327 326 327 328 328 327 328 327 327 324 324 318 316 318 321 319 319 321 319 319 314 313 315 316 316 315 313 313 311 310 309 308 307 306 306
324 324 323 322 321 321 321 322 322 323 324 325 326 326 324 323 322 321 320 320 314 313 313 313 313 315 313 310 310 312 312 311 311 310 309 309 308 308 307 307 306 305 305 304
324 323 323 321 320 319 317 316 314 316 319 319 319 320 322 322 321 320 314 309 308 310 308 309 306 307 308 311 310 310 309 309 308 308 307 307 306 306 304 302 303 303 303 303
324 323 322 321 320 317 315 315 312 310 310 310 313 315 316 314 309 309 309 307 305 305 304 305 305 306 308 308 308 307 307 306 306 305 304 303 302 302 301 301 301 301 301 300
323 319 320 319 317 318 316 315 313 312 312 309 308 308 309 308 308 308 306 305 305 305 304 303 303 305 306 306 306 306 306 306 305 304 302 302 301 301 301 300 299 299 299 299
320 317 318 318 315 314 317 317 317 315 316 315 313 312 311 309 307 308 308 306 305 305 305 305 305 305 305 305 305 305 305 303 303 302 302 302 302 301 301 301 301 300 300 299
319 318 319 318 315 313 310 312 311 310 310 311 309 307 307 306 305 305 305 305 305 306 306 305 305 305 305 305 305 305 305 304 302 302 302 302 302 301 301 301 300 300 300 300

GFSNGP_925_thetae_141.txt.gz
Theta_e
331 333 333 332 332 332 334 334 335 335 334 336 341 337 335 334 337 341 345 349 350 349 350 347 346 345 344 342 339 337 335 334 334 333 330 328 330 334 334 335 335 335 335 333
332 331 332 331 332 333 332 332 332 333 333 337 337 335 334 333 334 335 339 343 348 349 349 349 347 346 344 341 339 336 334 333 333 332 330 328 330 334 335 335 335 334 333 331
336 334 333 333 332 331 331 331 332 334 334 334 336 333 333 334 333 334 334 336 343 349 350 350 348 346 343 340 338 336 334 333 332 329 328 329 332 333 335 334 333 332 330 328
338 335 338 335 333 334 333 333 334 334 334 336 335 333 333 333 333 333 333 335 336 345 348 348 347 344 340 338 336 335 334 333 331 328 329 332 334 335 334 333 332 331 328 327
337 335 336 336 337 334 334 334 333 334 335 334 333 334 335 337 338 337 338 339 339 341 347 347 345 342 338 337 335 334 333 333 330 328 332 334 333 334 334 331 330 328 326 327
337 337 337 335 336 334 333 336 337 335 334 334 335 338 339 342 339 339 341 340 342 343 344 345 342 339 338 337 336 335 334 332 329 330 334 333 333 333 333 331 328 328 327 326
336 336 335 337 335 333 336 339 338 336 337 338 339 339 341 340 339 340 342 342 343 344 344 342 339 338 339 337 336 335 334 331 330 331 333 332 331 333 332 330 329 327 326 325
332 333 334 337 335 334 343 341 339 338 339 338 338 338 338 338 339 339 342 343 343 343 341 338 339 339 339 337 336 335 334 331 331 330 331 330 331 332 331 329 328 327 325 325
340 335 341 335 341 341 339 340 338 337 335 334 335 335 336 339 339 339 340 343 342 341 338 336 339 340 340 339 337 336 334 332 334 331 330 331 331 332 331 328 327 324 323 324
337 338 336 336 335 334 334 335 331 330 330 328 328 329 331 333 337 340 340 341 340 339 337 339 340 342 341 341 339 337 335 334 334 331 331 330 329 326 325 326 327 324 325 324
334 336 335 332 331 331 331 330 327 327 326 325 324 324 325 326 329 331 336 339 340 339 338 338 341 342 341 340 338 337 335 333 332 328 326 327 326 325 324 327 323 323 321 322
331 334 335 333 332 330 329 328 326 324 323 322 321 321 322 322 321 323 326 330 336 339 339 339 340 342 340 335 331 333 332 331 330 326 325 324 325 327 325 324 320 319 317 317
330 330 331 329 330 329 326 324 321 320 320 320 320 320 321 323 323 323 322 321 326 332 336 340 335 331 326 323 323 322 328 332 328 324 323 323 324 326 324 320 318 318 314 314
322 323 323 322 323 323 320 319 319 318 318 319 320 320 320 322 323 323 324 324 323 327 339 335 331 329 326 327 331 330 331 332 327 325 323 325 325 323 324 326 327 324 317 317
319 318 319 319 319 320 319 319 319 320 320 320 318 320 320 323 324 325 324 325 325 334 335 334 331 329 328 335 334 332 332 328 325 325 325 324 324 323 325 324 326 324 324 321
318 319 320 322 322 321 321 322 324 324 324 324 321 320 320 322 323 324 324 325 325 330 333 329 331 333 333 334 332 331 329 327 327 326 325 324 325 325 325 324 325 323 320 317
321 323 323 325 326 326 326 325 325 324 324 323 321 320 321 323 323 323 326 327 330 333 330 328 322 319 321 332 331 328 327 327 324 322 325 325 325 325 324 324 323 320 317 314
322 323 324 324 324 325 326 326 324 323 323 322 322 323 324 324 325 327 329 329 331 331 331 332 330 328 326 330 328 324 323 324 321 323 324 324 326 324 323 323 322 320 319 315
324 325 326 326 325 326 326 326 326 326 326 325 324 325 325 325 326 329 328 329 331 329 330 327 327 329 327 323 324 324 323 322 322 322 322 319 320 322 322 320 319 318 315 312
325 325 326 326 325 325 326 326 327 326 326 326 326 326 326 327 328 330 330 328 327 324 327 327 327 326 323 321 322 322 320 319 319 320 322 322 320 319 316 314 314 312 311 310
326 326 325 325 325 324 324 324 325 327 329 327 327 327 328 328 329 329 328 327 322 320 324 325 325 323 321 320 319 319 317 318 317 318 317 316 317 316 314 312 310 309 309 308
326 325 324 324 323 323 322 322 323 325 325 327 328 328 329 328 326 325 325 323 319 317 320 320 319 316 314 315 316 315 315 316 316 315 314 313 312 311 310 309 308 307 307 307
325 325 324 324 322 319 318 317 317 319 321 323 324 325 325 324 324 324 323 315 317 315 317 318 316 314 311 312 313 314 313 313 313 312 311 310 309 308 307 306 306 306 305 305
325 324 323 320 320 320 320 318 315 311 311 314 316 318 321 321 319 316 311 305 306 308 308 307 307 307 308 313 312 312 312 311 310 309 307 305 305 305 304 304 304 303 303 303
324 323 320 321 320 319 319 319 316 310 310 312 313 313 312 312 312 309 308 305 305 305 305 304 305 307 309 309 309 309 308 308 308 307 305 305 304 304 304 303 303 303 303 303
319 321 319 317 317 320 319 319 319 318 318 317 316 314 311 309 308 308 306 307 307 306 306 307 307 308 308 308 308 308 308 305 305 305 305 305 305 304 304 304 304 304 303 303
322 322 320 318 315 315 316 315 316 315 315 313 311 310 310 310 309 309 308 307 308 308 308 307 307 308 308 308 308 308 308 307 305 305 305 305 305 304 304 304 303 303 303 303

GFSNGP_925_thetae_144.txt.gz
Theta_e
331 333 334 333 332 332 333 334 337 337 337 341 344 342 341 341 343 340 341 345 351 357 364 358 354 351 349 347 345 342 339 337 336 336 334 332 330 330 335 335 336 336 335 334
333 332 332 334 334 333 331 332 333 333 334 345 344 340 339 336 335 337 341 339 346 353 361 357 354 351 349 348 344 340 339 337 336 334 334 331 331 331 334 336 336 334 333 332
337 332 332 334 334 333 334 334 333 336 338 343 342 340 338 336 334 334 335 336 343 351 358 356 353 351 349 348 343 341 338 336 335 334 331 330 331 334 336 336 335 333 333 327
336 340 340 334 333 333 332 333 333 332 343 345 343 339 336 335 334 333 333 337 344 345 350 356 352 350 349 347 344 340 338 336 334 332 330 331 335 335 336 336 334 332 328 329
339 337 337 335 335 335 334 334 334 334 338 337 336 335 341 342 343 342 341 344 345 342 344 355 353 350 348 345 342 339 338 336 334 331 330 334 334 335 335 335 333 329 330 328
339 338 342 340 340 336 335 340 335 336 335 335 337 336 345 344 340 342 343 341 341 339 342 354 352 348 345 342 340 339 336 335 333 331 332 334 334 334 334 334 333 331 328 328
343 341 337 340 336 335 339 342 339 337 338 339 342 346 343 339 339 339 340 341 341 343 345 351 350 345 343 342 341 338 336 335 332 331 333 334 333 333 333 334 331 329 329 326
341 343 343 339 336 337 351 348 341 344 342 344 341 338 339 339 343 342 342 340 342 345 348 350 347 344 343 343 340 338 336 335 332 332 332 332 333 333 333 334 333 329 327 325
340 345 349 344 349 348 345 347 343 343 338 338 336 335 335 337 342 345 342 345 342 344 348 348 345 343 344 343 340 338 337 335 333 334 332 331 332 333 334 333 330 326 327 326
345 342 343 341 339 340 340 337 336 334 332 330 330 329 329 331 332 337 339 342 343 346 347 346 345 343 343 343 341 338 338 335 334 334 333 332 333 333 332 330 327 325 326 325
347 341 337 335 334 335 334 331 329 328 328 327 325 325 325 326 332 330 331 332 333 342 345 344 342 345 344 343 340 333 332 331 329 332 334 330 331 331 329 326 324 325 324 324
339 342 341 341 335 332 331 329 328 327 326 325 323 324 323 326 325 326 327 326 328 330 333 340 342 343 335 336 334 326 326 325 323 330 333 330 329 324 326 323 320 321 316 317
333 333 335 335 334 331 330 327 325 323 322 322 322 322 321 328 324 324 325 326 328 328 328 331 341 338 335 331 327 324 325 324 331 333 328 325 329 326 320 318 318 316 314 316
325 327 328 326 328 328 326 324 321 321 320 319 319 320 321 324 324 326 327 327 327 328 329 331 339 339 336 332 327 323 329 326 331 333 330 327 327 327 327 323 319 318 316 317
321 320 321 321 321 321 322 322 321 320 320 321 321 323 322 325 327 327 326 326 326 328 329 335 337 336 333 332 331 334 334 333 332 331 326 325 326 326 328 327 326 327 323 319
320 319 320 320 321 322 322 321 320 321 324 325 328 327 324 322 324 325 325 325 328 331 331 332 332 331 328 328 330 329 326 331 326 326 326 325 326 326 325 326 325 321 317 316
319 320 321 322 323 325 326 325 325 325 326 325 326 324 323 322 324 325 325 326 331 331 333 332 332 324 321 321 320 319 326 326 322 325 327 326 325 325 319 320 323 319 317 313
321 322 323 323 324 324 324 324 325 326 326 324 324 323 324 326 327 328 328 328 330 331 331 333 332 331 324 320 318 320 322 325 321 324 325 322 322 319 323 324 322 321 317 311
322 323 324 325 326 327 327 328 328 328 329 327 327 326 327 326 326 328 330 329 332 331 331 329 329 330 325 323 322 324 325 324 325 324 322 322 322 321 322 320 319 318 314 312
324 324 326 327 326 326 327 328 328 327 327 327 328 328 329 329 328 331 332 330 327 328 328 327 327 326 325 323 325 324 324 324 324 323 323 321 320 318 318 315 313 312 311 310
326 328 327 326 327 327 326 326 326 326 327 329 330 329 328 330 331 330 329 328 324 323 326 326 325 324 323 321 321 322 321 320 320 320 319 319 320 320 316 312 311 310 309 309
328 327 325 325 325 324 323 323 323 324 326 328 328 329 329 329 328 327 325 325 322 321 324 322 321 320 321 319 319 320 319 318 316 316 316 314 314 312 311 310 309 308 308 308
326 326 325 325 323 321 320 318 317 319 322 324 325 327 327 326 324 325 323 319 320 319 320 317 314 313 313 315 315 316 316 315 314 314 312 311 310 310 308 307 307 307 306 306
326 325 323 322 322 321 320 318 316 313 314 318 319 320 323 322 319 313 311 314 314 315 312 309 308 309 309 311 314 314 314 313 312 310 308 308 307 306 306 306 305 305 304 304
324 323 322 321 321 321 320 317 314 312 314 316 316 315 314 315 315 313 310 307 308 309 308 307 308 309 311 311 310 310 310 309 309 307 306 306 306 305 305 305 305 305 304 304
323 322 321 320 322 321 320 319 319 318 317 314 312 312 310 308 308 308 306 306 305 306 306 307 309 309 309 309 309 310 308 307 307 306 306 306 306 306 305 305 304 305 305 304
323 321 319 318 317 319 318 317 318 317 316 315 315 314 313 312 311 310 309 309 309 309 310 308 308 309 309 309 309 309 309 307 306 306 307 306 306 306 306 305 305 305 305 304

GFSNGP_925_thetae_147.txt.gz
Theta_e
329 330 331 331 330 329 327 330 331 329 335 336 338 336 335 337 338 339 344 342 343 357 352 352 353 352 351 350 348 346 342 339 337 336 337 334 331 330 329 334 334 336 332 330
334 330 329 330 332 330 329 329 331 332 333 339 333 337 337 338 338 338 337 337 340 358 356 356 352 350 349 348 346 343 340 338 336 336 335 333 331 330 331 334 336 334 329 329
333 333 332 332 331 333 331 330 329 330 337 337 338 338 335 334 334 335 335 337 339 343 353 355 352 350 348 347 344 340 338 336 336 335 334 332 330 331 334 337 335 331 327 329
332 334 335 331 333 333 334 332 337 342 341 339 339 336 334 332 330 331 334 335 336 339 352 354 351 349 348 344 341 339 338 337 335 334 333 330 330 335 335 336 335 331 328 331
335 334 337 334 333 336 334 336 341 341 340 337 342 341 342 340 339 338 338 338 339 338 339 354 353 349 348 344 342 339 337 336 335 334 332 330 333 335 334 334 333 330 331 329
337 337 334 335 338 335 337 337 338 337 335 335 338 347 345 339 341 340 341 342 341 341 344 354 353 351 348 345 342 338 337 336 335 334 331 330 334 334 333 332 333 332 328 328
339 336 335 336 336 337 337 342 343 345 343 343 345 343 340 338 340 338 340 342 341 341 342 354 352 349 347 344 340 338 337 336 335 334 331 331 334 333 333 333 333 331 328 327
343 343 344 343 334 340 345 343 342 343 342 342 342 340 340 341 341 341 341 343 344 344 345 355 352 348 344 341 340 337 336 336 334 331 331 331 334 334 334 331 332 330 330 326
342 351 347 345 346 345 341 341 340 338 338 337 335 336 336 335 334 336 337 337 338 342 347 352 349 347 343 341 340 338 338 335 334 333 334 332 331 331 331 330 330 330 327 324
345 346 345 341 341 340 338 337 334 330 328 328 328 329 329 330 329 331 331 332 332 333 339 345 348 346 343 342 341 338 335 333 331 327 326 326 325 328 331 331 331 326 324 324
345 341 339 338 337 333 332 329 328 326 325 324 323 323 324 325 325 326 327 326 324 326 328 328 340 342 342 340 337 336 334 328 324 325 324 325 325 330 331 329 326 323 322 317
342 336 340 338 333 331 330 328 327 326 324 323 322 322 322 322 325 326 326 325 323 327 327 326 341 340 340 338 335 330 328 325 325 327 325 324 328 329 327 322 321 320 316 316
336 333 336 335 333 332 329 325 324 322 321 320 321 321 322 323 325 324 324 327 328 328 326 328 339 336 336 336 337 332 328 327 326 324 323 324 325 323 318 318 315 316 316 315
327 329 329 328 331 328 326 323 322 322 321 321 321 321 322 322 322 323 328 328 325 324 325 329 339 336 334 335 331 329 327 325 324 326 330 330 327 322 318 318 315 314 316 316
322 321 322 321 321 321 321 321 322 321 320 321 323 324 324 322 323 325 328 325 324 325 330 335 333 336 336 333 331 330 327 327 330 330 326 325 327 325 323 320 319 319 321 321
321 319 319 320 321 323 323 323 322 320 322 326 325 326 325 326 323 325 326 323 324 330 333 332 332 332 330 330 331 330 327 328 327 327 326 326 325 323 325 325 325 324 323 318
320 321 322 324 325 325 325 324 325 325 326 324 324 324 324 325 328 326 325 325 330 332 332 332 330 328 325 326 322 322 326 326 326 325 324 324 325 324 323 323 319 316 314 314
322 322 322 324 324 326 328 328 328 329 329 328 325 326 327 326 328 326 329 329 331 331 331 330 329 329 323 320 320 319 323 327 325 325 324 324 324 321 320 322 322 319 311 311
322 323 324 327 327 327 326 328 329 328 328 329 329 329 330 328 328 331 331 329 329 329 328 328 329 327 322 322 323 324 325 324 325 322 321 320 321 323 322 323 322 322 313 310
326 327 328 328 328 328 328 327 327 327 327 328 329 331 329 330 331 330 328 326 327 328 327 327 326 325 323 325 325 324 325 324 324 322 323 322 320 322 320 319 316 315 310 309
329 328 328 327 326 325 324 324 325 325 326 327 329 328 329 328 328 328 326 324 323 325 326 325 324 324 322 321 322 323 322 322 321 320 320 321 319 319 316 311 309 309 309 308
327 327 326 325 324 323 321 321 320 323 324 326 327 328 328 327 325 323 325 323 322 323 323 323 323 322 320 320 320 319 319 318 317 317 317 318 316 311 309 308 307 308 307 306
327 327 325 324 322 321 319 318 317 318 320 321 322 324 323 323 325 323 319 320 321 321 320 318 318 319 317 317 318 319 318 317 316 313 314 310 308 307 307 307 306 305 304 303
326 324 322 322 321 320 319 319 316 315 316 318 317 318 321 314 313 316 317 319 319 317 313 312 312 312 311 312 313 313 314 312 309 308 307 306 306 306 305 305 304 303 303 302
324 323 321 322 322 321 317 315 314 315 317 316 315 314 315 315 313 312 312 311 310 309 308 307 307 309 310 310 310 309 309 308 307 306 305 305 305 304 305 304 304 304 303 303
324 323 322 322 322 322 320 318 315 313 312 312 311 311 311 310 309 308 307 306 307 307 307 308 309 309 309 309 309 308 308 306 306 306 306 306 305 305 304 304 304 304 304 303
322 321 319 320 319 320 320 320 320 320 318 316 314 311 310 309 307 307 308 308 308 308 309 308 308 309 308 309 309 308 307 306 306 306 306 306 306 305 305 305 305 305 304 304